Latest Coastal Weather Observations for Browse Island

IDW60701

Issued at 11:45 pm WST Wednesday 17 September 2014 (issued every 10 minutes, with the page automatically refreshed every 10 minutes)

About coastal observations | Map of coastal stations | Coastal observations for WA | Marine services | Other Formats
Station Details ID: 200784 Name: BROWSE ISLAND Lat: -14.11 Lon: 123.55 Height: 3.7 m
Data from the previous 72 hours. | See also: Recent months for locations in Western Australia
Date/Time
WST
Temp

°C
Wind Pressure Rain
since 9am
mm
Weather Cloud Vis
km
Sea
Height
m
Swell
Dir
 
Speed
knots
Gust
knots
hPa Trend Height
m
Period
s
Dir
17/11:30pm 26.0 W 3 3 1014.0 - - - - - - - - -
17/11:00pm 26.3 NW 4 - 1014.5 - - - - - - - - -
17/10:30pm 26.0 NW 4 - 1014.0 - - - - - - - - -
17/10:00pm 26.4 NW 5 - 1014.8 - - - - - - - - -
17/09:30pm 27.0 N 5 - 1015.0 - - - - - - - - -
17/09:00pm 26.5 N 6 - 1014.9 - - - - - - - - -
17/08:30pm 27.0 NNE 5 - 1015.0 - - - - - - - - -
17/08:00pm 26.5 N 5 - 1014.8 - - - - - - - - -
17/07:30pm 27.0 NNE 6 - 1014.0 - - - - - - - - -
17/07:00pm 26.7 NNE 7 - 1014.0 - - - - - - - - -
17/06:30pm 27.0 NE 5 - 1013.0 - - - - - - - - -
17/06:00pm 26.7 NE 5 - 1013.4 - - - - - - - - -
17/05:30pm 27.0 NE 5 - 1013.0 - - - - - - - - -
17/05:00pm 27.3 ENE 4 - 1012.9 - - - - - - - - -
17/04:30pm 27.0 ENE 4 - 1012.0 - - - - - - - - -
17/04:00pm 27.7 NE 5 - 1012.7 - - - - - - - - -
17/03:30pm 28.0 NE 5 - 1012.0 - - - - - - - - -
17/03:00pm 28.4 E 5 - 1012.6 - - - - - - - - -
17/02:30pm 28.0 ENE 5 - 1012.0 - - - - - - - - -
17/02:00pm 28.6 E 5 - 1012.9 - - - - - - - - -
17/01:30pm 28.0 ESE 5 - 1013.0 - - - - - - - - -
17/01:00pm 27.9 SE 5 - 1013.2 - - - - - - - - -
17/12:30pm 28.0 SSW 3 - 1013.0 - - - - - - - - -
17/12:00pm 27.8 SW 4 - 1013.7 - - - - - - - - -
17/11:30am 28.0 SW 4 - 1014.0 - - - - - - - - -
17/11:00am 27.4 WSW 4 - 1014.2 - - - - - - - - -
17/10:30am 27.0 WSW 5 - 1014.0 - - - - - - - - -
17/10:00am 27.2 SW 4 - 1014.8 - - - - - - - - -
17/09:30am 28.0 W 4 - 1015.0 - - - - - - - - -
17/09:00am 27.3 NW 4 - 1015.1 - - - - - - - - -
17/08:30am 27.0 NW 4 - 1015.0 - - - - - - - - -
17/08:00am 26.5 NW 3 - 1014.8 - - - - - - - - -
17/07:30am 27.0 WSW 0 0 1014.0 - - - - - - - - -
17/07:00am 26.0 CALM 0 - 1014.0 - - - - - - - - -
17/06:30am 26.0 SSE 3 - 1013.0 - - - - - - - - -
17/06:00am 25.7 CALM 0 - 1013.5 - - - - - - - - -
17/05:30am 26.0 CALM 0 - 1013.0 - - - - - - - - -
17/05:00am 25.5 ENE 3 - 1012.9 - - - - - - - - -
17/04:30am 26.0 ENE 4 - 1012.0 - - - - - - - - -
17/04:00am 25.6 ENE 3 - 1012.3 - - - - - - - - -
17/03:30am 26.0 ENE 3 - 1012.0 - - - - - - - - -
17/03:00am 25.4 CALM 0 - 1011.8 - - - - - - - - -
17/02:30am 25.0 CALM 0 - 1011.0 - - - - - - - - -
17/02:00am 25.7 NE 3 - 1011.6 - - - - - - - - -
17/01:30am 26.0 N 4 - 1011.0 - - - - - - - - -
17/01:00am 26.0 N 4 - 1011.8 - - - - - - - - -
17/12:30am 26.0 N 5 - 1012.0 - - - - - - - - -
17/12:00am 26.1 N 6 6 1012.1 - - - - - - - - -
 
Date/Time
WST
Temp

°C
Wind Pressure Rain
since 9am
mm
Weather Cloud Vis
km
Sea
Height
m
Swell
Dir
 
Speed
knots
Gust
knots
hPa Trend Height
m
Period
s
Dir
16/11:30pm 26.0 N 6 - 1012.0 - - - - - - - - -
16/11:00pm 26.1 N 5 - 1012.4 - - - - - - - - -
16/10:30pm 26.0 NNW 6 - 1012.0 - - - - - - - - -
16/10:00pm 26.3 NNW 5 - 1012.3 - - - - - - - - -
16/09:30pm 26.0 N 6 - 1012.0 - - - - - - - - -
16/09:00pm 26.4 NNW 6 - 1012.5 - - - - - - - - -
16/08:30pm 26.0 N 5 - 1012.0 - - - - - - - - -
16/08:00pm 26.4 N 6 - 1012.4 - - - - - - - - -
16/07:30pm 26.0 N 5 - 1012.0 - - - - - - - - -
16/07:00pm 26.3 N 4 - 1011.7 - - - - - - - - -
16/06:30pm 26.0 N 1 - 1011.0 - - - - - - - - -
16/06:00pm 26.3 N 3 - 1011.1 - - - - - - - - -
16/05:30pm 26.0 N 3 - 1011.0 - - - - - - - - -
16/05:00pm 27.0 NNE 3 - 1010.7 - - - - - - - - -
16/04:30pm 27.0 NNE 4 - 1010.0 - - - - - - - - -
16/04:00pm 27.3 N 4 - 1010.5 - - - - - - - - -
16/03:30pm 28.0 NW 4 - 1010.0 - - - - - - - - -
16/03:00pm 27.7 NW 4 - 1010.3 - - - - - - - - -
16/02:30pm 28.0 W 3 - 1010.0 - - - - - - - - -
16/02:00pm 27.4 SW 4 - 1010.7 - - - - - - - - -
16/01:30pm 27.0 SSW 4 - 1011.0 - - - - - - - - -
16/01:00pm 26.9 SSW 5 - 1011.1 - - - - - - - - -
16/12:30pm 27.0 S 4 - 1011.0 - - - - - - - - -
16/12:00pm 27.3 S 4 - 1012.3 - - - - - - - - -
16/11:30am 27.0 SW 1 - 1013.0 - - - - - - - - -
16/11:00am 26.5 WSW 3 - 1013.1 - - - - - - - - -
16/10:30am 27.0 W 4 - 1013.0 - - - - - - - - -
16/10:00am 26.5 WSW 4 - 1013.7 - - - - - - - - -
16/09:30am 26.0 WNW 4 - 1013.0 - - - - - - - - -
16/09:00am 26.2 WSW 3 - 1013.7 - - - - - - - - -
16/08:30am 26.0 SW 3 - 1013.0 - - - - - - - - -
16/08:00am 26.1 S 3 - 1013.3 - - - - - - - - -
16/07:30am 26.0 SSW 4 - 1013.0 - - - - - - - - -
16/07:00am 25.5 SSW 3 - 1012.9 - - - - - - - - -
16/06:30am 25.0 SW 3 - 1012.0 - - - - - - - - -
16/06:00am 25.1 WSW 4 - 1012.1 - - - - - - - - -
16/05:30am 25.0 W 5 - 1011.0 - - - - - - - - -
16/05:00am 25.3 W 6 - 1011.4 - - - - - - - - -
16/04:30am 25.0 W 7 - 1011.0 - - - - - - - - -
16/04:00am 25.3 W 7 - 1010.9 - - - - - - - - -
16/03:30am 25.0 WSW 7 - 1010.0 - - - - - - - - -
16/03:00am 25.4 W 5 - 1010.5 - - - - - - - - -
16/02:30am 25.0 W 4 - 1010.0 - - - - - - - - -
16/02:00am 25.3 WNW 5 - 1010.9 - - - - - - - - -
16/01:30am 25.0 NW 5 - 1011.0 - - - - - - - - -
16/01:00am 25.6 NW 6 - 1011.3 - - - - - - - - -
16/12:30am 26.0 NW 7 - 1011.0 - - - - - - - - -
16/12:00am 25.7 NW 7 - 1011.7 - - - - - - - - -
 
Date/Time
WST
Temp

°C
Wind Pressure Rain
since 9am
mm
Weather Cloud Vis
km
Sea
Height
m
Swell
Dir
 
Speed
knots
Gust
knots
hPa Trend Height
m
Period
s
Dir
15/11:30pm 26.0 NW 7 - 1012.0 - - - - - - - - -
15/11:00pm 25.8 WNW 7 - 1012.2 - - - - - - - - -
15/10:30pm 26.0 NW 7 - 1012.0 - - - - - - - - -
15/10:00pm 26.0 NW 8 - 1012.3 - - - - - - - - -
15/09:30pm 26.0 WNW 8 - 1012.0 - - - - - - - - -
15/09:00pm 26.0 NW 7 - 1012.6 - - - - - - - - -
15/08:30pm 26.0 NW 8 - 1012.0 - - - - - - - - -
15/08:00pm 26.3 WNW 9 - 1012.2 - - - - - - - - -
15/07:30pm 26.0 NW 9 - 1012.0 - - - - - - - - -
15/07:00pm 26.6 NW 8 - 1011.6 - - - - - - - - -
15/06:30pm 26.0 NW 8 - 1011.0 - - - - - - - - -
15/06:00pm 26.4 WNW 6 - 1011.0 - - - - - - - - -
15/05:30pm 26.0 WNW 4 - 1011.0 - - - - - - - - -
15/05:00pm 27.0 W 3 - 1010.7 - - - - - - - - -
15/04:30pm 27.0 W 3 - 1010.0 - - - - - - - - -
15/04:00pm 27.1 W 4 - 1010.6 - - - - - - - - -
15/03:30pm 27.0 W 4 - 1010.0 - - - - - - - - -
15/03:00pm 27.6 W 4 - 1010.7 - - - - - - - - -
15/02:30pm 28.0 WSW 4 - 1011.0 - - - - - - - - -
15/02:00pm 27.8 SW 4 - 1011.1 - - - - - - - - -
15/01:30pm 28.0 E 4 - 1011.0 - - - - - - - - -
15/01:00pm 28.1 NE 4 - 1011.9 - - - - - - - - -
15/12:30pm 29.0 ENE 5 - 1012.0 - - - - - - - - -
15/12:00pm 28.0 ENE 5 - 1012.7 - - - - - - - - -
15/11:30am 28.0 E 5 - 1013.0 - - - - - - - - -
15/11:00am 28.1 E 6 - 1013.3 - - - - - - - - -
15/10:30am 28.0 E 6 - 1013.0 - - - - - - - - -
15/10:00am 26.7 SE 7 - 1013.8 - - - - - - - - -
15/09:30am 27.0 SSE 7 - 1014.0 - - - - - - - - -
15/09:00am 26.7 SSE 5 - 1014.0 - - - - - - - - -
15/08:30am 27.0 S 3 - 1014.0 - - - - - - - - -
15/08:00am 26.1 WSW 4 - 1013.7 - - - - - - - - -
15/07:30am 26.0 WSW 5 - 1013.0 - - - - - - - - -
15/07:00am 25.7 WSW 6 - 1012.9 - - - - - - - - -
15/06:30am 26.0 WSW 5 - 1012.0 - - - - - - - - -
15/06:00am 25.5 W 5 - 1012.6 - - - - - - - - -
15/05:30am 26.0 W 5 - 1012.0 - - - - - - - - -
15/05:00am 25.5 W 5 - 1011.9 - - - - - - - - -
15/04:30am 26.0 W 3 - 1011.0 - - - - - - - - -
15/04:00am 25.6 W 4 - 1011.6 - - - - - - - - -
15/03:30am 26.0 WNW 5 - 1011.0 - - - - - - - - -

Other Formats:

Comma delimited format used in spreadsheet applications
http://www.bom.gov.au/fwo/IDW60701/IDW60701.94103.axf

JavaScript Object Notation format (JSON) in row-major order
http://www.bom.gov.au/fwo/IDW60701/IDW60701.94103.json